Weather History for Oakes, ND

Change the Weather History Date:

Sunday, September 30, 2012

  Actual Average (KABR) Record (KABR)
Temperature  
Mean Temperature 63 °F 52 °F  
Max Temperature 82 °F 66 °F 92 °F (1989)
Min Temperature 44 °F 39 °F 15 °F (1939)
Degree Days  
Heating Degree Days 2 13  
Month to date heating degree days 224  
Since 1 July heating degree days 274  
Cooling Degree Days 0 0  
Month to date cooling degree days 40  
Year to date cooling degree days 523  
Growing Degree Days 13 (Base 50)    
Moisture  
Dew Point 40 °F    
Average Humidity 46    
Maximum Humidity 76    
Minimum Humidity 23    
Precipitation  
Precipitation 0.00 in 0.07 in 2.10 in (1923)
Month to date precipitation 2.19  
Year to date precipitation 18.48  
Sea Level Pressure  
Sea Level Pressure 29.94 in    
Wind  
Wind Speed 9 mph (WSW)    
Max Wind Speed 21 mph    
Max Gust Speed 28 mph    
Visibility 10 miles    
Events      
T = Trace of Precipitation, MM = Missing Value Source: NWS Daily Summary

Daily Weather History Graph

Daily Weather History Graph

Search for Another Location

Airport:

Trip Planner

Search our weather history database for the weather conditions in past years. The results will help you decide how hot, cold, wet, or windy it might be!

Date:

Astronomy

Sep. 30, 2012 Rise Set
Actual Time 7:30 AM CDT 7:13 PM CDT
Civil Twilight 7:00 AM CDT 7:43 PM CDT
Nautical Twilight 6:25 AM CDT 8:17 PM CDT
Astronomical Twilight 5:50 AM CDT 8:53 PM CDT
Moon 7:11 PM CDT (9/30) 8:07 AM CDT (9/30)
Length of Visible Light 12h 42m
Length of Day
11h 43m
Full, 100% of the Moon is Illuminated
Sep 30
Full
Oct 8
Last Quarter
Oct 15
New
Oct 21
First Quarter
Oct 29
Full

Hourly Weather History & Observations

Time (CDT) Temp. Windchill Dew Point Humidity Pressure Visibility Wind Dir Wind Speed Gust Speed Precip Events Conditions
12:15 AM 53.6 °F - 32.0 °F 44% 29.99 in 10.0 mi SSE 8.1 mph - N/A   Clear
1:15 AM 50.0 °F - 33.8 °F 54% 29.98 in 10.0 mi South 6.9 mph - N/A   Clear
1:35 AM 50.0 °F - 33.8 °F 54% 29.98 in 10.0 mi South 6.9 mph - N/A   Clear
1:55 AM 50.0 °F - 33.8 °F 54% 29.98 in 10.0 mi South 5.8 mph - N/A   Clear
2:15 AM 48.2 °F - 33.8 °F 58% 29.98 in 10.0 mi South 6.9 mph - N/A   Clear
2:35 AM 50.0 °F - 35.6 °F 58% 29.98 in 10.0 mi South 8.1 mph - N/A   Clear
2:55 AM 50.0 °F - 33.8 °F 54% 29.97 in 10.0 mi South 8.1 mph - N/A   Clear
3:15 AM 50.0 °F - 35.6 °F 58% 29.97 in 10.0 mi South 6.9 mph - N/A   Clear
3:35 AM 50.0 °F - 33.8 °F 54% 29.96 in 10.0 mi South 9.2 mph - N/A   Clear
3:55 AM 50.0 °F - 35.6 °F 58% 29.96 in 10.0 mi South 10.4 mph - N/A   Clear
4:15 AM 50.0 °F - 35.6 °F 58% 29.96 in 10.0 mi South 8.1 mph - N/A   Clear
4:35 AM 48.2 °F - 35.6 °F 62% 29.96 in 10.0 mi South 9.2 mph - N/A   Clear
4:55 AM 48.2 °F - 35.6 °F 62% 29.95 in 10.0 mi South 6.9 mph - N/A   Clear
5:15 AM 48.2 °F - 35.6 °F 62% 29.95 in 10.0 mi South 8.1 mph - N/A   Clear
5:35 AM 46.4 °F 43.5 °F 35.6 °F 66% 29.95 in 10.0 mi SSW 5.8 mph - N/A   Clear
5:55 AM 44.6 °F 42.2 °F 35.6 °F 71% 29.95 in 10.0 mi South 4.6 mph - N/A   Clear
6:15 AM 44.6 °F 39.7 °F 35.6 °F 71% 29.94 in 10.0 mi South 9.2 mph - N/A   Clear
6:35 AM 44.6 °F 39.7 °F 35.6 °F 71% 29.94 in 10.0 mi South 9.2 mph - N/A   Clear
6:55 AM 44.6 °F 39.2 °F 35.6 °F 71% 29.94 in 10.0 mi South 10.4 mph - N/A   Clear
7:15 AM 44.6 °F 40.2 °F 37.4 °F 76% 29.95 in 10.0 mi SSW 8.1 mph - N/A   Clear
7:35 AM 44.6 °F 39.7 °F 37.4 °F 76% 29.95 in 10.0 mi SSW 9.2 mph - N/A   Clear
7:55 AM 46.4 °F 41.1 °F 37.4 °F 71% 29.95 in 10.0 mi South 11.5 mph - N/A   Clear
8:15 AM 48.2 °F - 37.4 °F 66% 29.95 in 10.0 mi South 12.7 mph - N/A   Clear
8:35 AM 50.0 °F - 37.4 °F 62% 29.95 in 10.0 mi South 12.7 mph - N/A   Clear
9:15 AM 53.6 °F - 37.4 °F 54% 29.94 in 10.0 mi South 15.0 mph - N/A   Clear
9:35 AM 55.4 °F - 39.2 °F 54% 29.95 in 10.0 mi SSW 10.4 mph - N/A   Clear
9:55 AM 57.2 °F - 39.2 °F 51% 29.95 in 10.0 mi SSW 11.5 mph - N/A   Clear
10:15 AM 59.0 °F - 39.2 °F 48% 29.94 in 10.0 mi South 9.2 mph - N/A   Clear
10:35 AM 62.6 °F - 39.2 °F 42% 29.95 in 10.0 mi SSW 9.2 mph - N/A   Clear
10:55 AM 64.4 °F - 39.2 °F 40% 29.94 in 10.0 mi South 9.2 mph - N/A   Clear
11:15 AM 66.2 °F - 39.2 °F 37% 29.94 in 10.0 mi SSW 8.1 mph - N/A   Clear
11:35 AM 68.0 °F - 41.0 °F 37% 29.94 in 10.0 mi South 8.1 mph - N/A   Clear
11:55 AM 71.6 °F - 41.0 °F 33% 29.94 in 10.0 mi SW 9.2 mph - N/A   Clear
12:15 PM 73.4 °F - 41.0 °F 31% 29.93 in 10.0 mi SW 6.9 mph - N/A   Clear
12:35 PM 75.2 °F - 42.8 °F 31% 29.93 in 10.0 mi SW 9.2 mph - N/A   Clear
12:55 PM 77.0 °F - 44.6 °F 32% 29.92 in 10.0 mi WSW 10.4 mph - N/A   Clear
1:15 PM 77.0 °F - 44.6 °F 32% 29.92 in 10.0 mi SW 9.2 mph - N/A   Clear
1:35 PM 78.8 °F - 46.4 °F 32% 29.91 in 10.0 mi WSW 9.2 mph - N/A   Clear
1:55 PM 80.6 °F - 46.4 °F 30% 29.90 in 10.0 mi SW 10.4 mph 16.1 mph N/A   Clear
2:15 PM 82.4 °F - 44.6 °F 26% 29.90 in 10.0 mi SW 9.2 mph - N/A   Clear
2:35 PM 82.4 °F - 44.6 °F 26% 29.89 in 10.0 mi WSW 9.2 mph - N/A   Clear
2:55 PM 82.4 °F - 42.8 °F 25% 29.89 in 10.0 mi SW 4.6 mph - N/A   Clear
3:15 PM 82.4 °F - 41.0 °F 23% 29.88 in 10.0 mi West 11.5 mph - N/A   Clear
3:35 PM 82.4 °F - 41.0 °F 23% 29.88 in 10.0 mi West 6.9 mph - N/A   Clear
3:55 PM 82.4 °F - 41.0 °F 23% 29.88 in 10.0 mi NW 10.4 mph - N/A   Clear
4:15 PM 82.4 °F - 41.0 °F 23% 29.88 in 10.0 mi NW 6.9 mph - N/A   Clear
4:35 PM 82.4 °F - 42.8 °F 25% 29.88 in 10.0 mi NW 8.1 mph - N/A   Clear
4:55 PM 82.4 °F - 42.8 °F 25% 29.88 in 10.0 mi WNW 13.8 mph - N/A   Partly Cloudy
5:15 PM 80.6 °F - 44.6 °F 28% 29.88 in 10.0 mi NW 19.6 mph 27.6 mph N/A   Scattered Clouds
5:35 PM 77.0 °F - 44.6 °F 32% 29.89 in 10.0 mi NW 13.8 mph 23.0 mph N/A   Partly Cloudy
5:55 PM 75.2 °F - 44.6 °F 34% 29.89 in 10.0 mi NW 13.8 mph - N/A   Partly Cloudy
6:15 PM 75.2 °F - 46.4 °F 36% 29.90 in 10.0 mi WNW 11.5 mph 19.6 mph N/A   Partly Cloudy
6:35 PM 75.2 °F - 46.4 °F 36% 29.90 in 10.0 mi NW 8.1 mph - N/A   Scattered Clouds
6:55 PM 73.4 °F - 46.4 °F 38% 29.90 in 10.0 mi NW 8.1 mph - N/A   Scattered Clouds
7:15 PM 71.6 °F - 46.4 °F 41% 29.90 in 10.0 mi NW 10.4 mph - N/A   Mostly Cloudy
7:35 PM 71.6 °F - 48.2 °F 43% 29.91 in 10.0 mi NW 12.7 mph - N/A   Partly Cloudy
7:55 PM 71.6 °F - 48.2 °F 43% 29.92 in 10.0 mi NNW 10.4 mph - N/A   Scattered Clouds
8:15 PM 71.6 °F - 46.4 °F 41% 29.92 in 10.0 mi NNW 13.8 mph 17.3 mph N/A   Partly Cloudy
8:35 PM 69.8 °F - 46.4 °F 43% 29.93 in 10.0 mi NNW 15.0 mph - N/A   Clear
8:55 PM 68.0 °F - 46.4 °F 46% 29.93 in 10.0 mi NNW 12.7 mph - N/A   Clear
9:15 PM 68.0 °F - 44.6 °F 43% 29.94 in 10.0 mi NNW 16.1 mph 23.0 mph N/A   Partly Cloudy
9:35 PM 68.0 °F - 44.6 °F 43% 29.95 in 10.0 mi NNW 20.7 mph 24.2 mph N/A   Mostly Cloudy
9:55 PM 66.2 °F - 44.6 °F 46% 29.96 in 10.0 mi NNW 17.3 mph - N/A   Overcast
10:15 PM 66.2 °F - 44.6 °F 46% 29.97 in 10.0 mi NW 15.0 mph 20.7 mph N/A   Mostly Cloudy
10:35 PM 66.2 °F - 42.8 °F 43% 29.98 in 10.0 mi NW 16.1 mph 20.7 mph N/A   Partly Cloudy
10:55 PM 64.4 °F - 42.8 °F 45% 29.99 in 10.0 mi NW 15.0 mph - N/A   Partly Cloudy
11:15 PM 64.4 °F - 41.0 °F 42% 30.00 in 10.0 mi NNW 16.1 mph - N/A   Partly Cloudy
11:35 PM 62.6 °F - 41.0 °F 45% 30.00 in 10.0 mi NW 13.8 mph - N/A   Scattered Clouds
11:55 PM 62.6 °F - 41.0 °F 45% 30.00 in 10.0 mi NW 17.3 mph 20.7 mph N/A   Partly Cloudy